Tracking 28096 objects as of 29-Sep-2023
HD Live streaming from Space Station
objects crossing your sky now

LANDSAT 3

Track LANDSAT 3 now!
10-day predictions
LANDSAT 3 is classified as:


NORAD ID: 10702
Int'l Code: 1978-026A
Perigee: 901.3 km
Apogee: 922.8 km
Inclination: 98.9 °
Period: 103.1 minutes
Semi major axis: 7283 km
RCS: 3.0427 m2 (large)
Launch date: March 5, 1978
Source: United States (US)
Launch site: AIR FORCE WESTERN TEST RANGE (AFWTR)
Your satellite tracking list
Your tracking list is empty




NASA's NSSDC Master Catalog

Two Line Element Set (TLE):
1 10702U 78026A   23271.92182174  .00000124  00000-0  12003-3 0  9998
2 10702  98.9208 232.6053 0014748 356.5719  69.8161 13.96788225322941
Source of the keplerian elements: AFSPC